Tracking 28790 objects as of 18-Apr-2024
HD Live streaming from Space Station
objects crossing your sky now

CALSPHERE 1

Track CALSPHERE 1 now!
10-day predictions
CALSPHERE 1 is classified as:


NORAD ID: 900
Int'l Code: 1964-063C
Perigee: 970.0 km
Apogee: 1,008.3 km
Inclination: 90.2 °
Period: 104.7 minutes
Semi major axis: 7360 km
RCS: 0.0462 m2 (small)
Launch date: October 6, 1964
Source: United States (US)
Launch site: AIR FORCE WESTERN TEST RANGE (AFWTR)
Your satellite tracking list
Your tracking list is empty




NASA's NSSDC Master Catalog

Two Line Element Set (TLE):
1 00900U 64063C   24109.53472191  .00001623  00000-0  16903-2 0  9999
2 00900  90.2032  54.0991 0026016 154.6711 258.7691 13.74914707962834
Source of the keplerian elements: AFSPC